CW5749 Weather Reports


time (UTC)temp
F
wind
direction
speed
knots
gust
knots
rain 1hr
in
rain 24hr
in
rain mn
in
humidity
%
barometer
mb
20260504110708 45 147 0.0 0.9 0.00 0.00 0.00 75 1002.5
20260504110209 45 164 0.0 1.7 0.00 0.00 0.00 76 1002.7
20260504100204 44 155 0.0 0.0 0.00 0.00 0.00 79 1002.9
20260504081634 47 125 0.0 0.9 0.00 0.00 0.00 68 1004.0
20260504081133 47 107 0.0 0.9 0.00 0.00 0.00 67 1004.0
20260504080633 47 101 0.0 0.9 0.00 0.00 0.00 67 1004.0
20260504080131 47 147 0.0 0.0 0.00 0.00 0.00 66 1004.2
20260504070118 49 226 0.0 0.9 0.00 0.00 0.00 61 1004.6
20260504050540 54 164 0.0 0.0 0.00 0.00 0.00 49 1006.0
20260504050257 54 165 0.0 0.0 0.00 0.00 0.00 50 1006.0
20260504045535 53 165 0.0 0.0 0.00 0.00 0.00 50 1005.9
20260504044531 54 165 0.0 0.0 0.00 0.00 0.00 50 1006.0
20260504044032 54 165 0.0 0.0 0.00 0.00 0.00 50 1006.1
20260504043750 55 164 0.0 0.0 0.00 0.00 0.00 49 1006.0
20260504043030 55 164 0.0 0.9 0.00 0.00 0.00 48 1006.1
20260504042528 56 166 0.0 0.9 0.00 0.00 0.00 46 1006.1
20260504042027 56 197 0.0 0.9 0.00 0.00 0.00 45 1006.2
20260504041524 57 247 0.0 0.0 0.00 0.00 0.00 44 1006.2
20260504041022 57 247 0.0 0.0 0.00 0.00 0.00 43 1006.2
20260504040741 58 247 0.0 0.0 0.00 0.00 0.00 41 1006.2
20260504040022 58 247 0.0 0.0 0.00 0.00 0.00 41 1006.2
20260504035520 59 247 0.0 0.0 0.00 0.00 0.00 40 1006.3
20260504035019 59 247 0.0 0.0 0.00 0.00 0.00 40 1006.3
20260504034514 60 247 0.0 0.9 0.00 0.00 0.00 39 1006.3
20260504034232 60 247 0.0 0.9 0.00 0.00 0.00 39 1006.4
20260504033232 60 246 0.0 1.7 0.00 0.00 0.00 37 1006.5
20260504032507 60 249 0.0 0.9 0.00 0.00 0.00 38 1006.4
20260504032005 61 247 0.0 0.9 0.00 0.00 0.00 37 1006.5
20260504031506 61 247 0.0 0.9 0.00 0.00 0.00 36 1006.5
20260504031004 61 247 0.0 0.0 0.00 0.00 0.00 36 1006.4
20260504030504 62 247 0.0 0.0 0.00 0.00 0.00 36 1006.4
20260504030002 62 247 0.0 0.0 0.00 0.00 0.00 35 1006.4
20260504025455 62 247 0.0 0.9 0.00 0.00 0.00 35 1006.3
20260504025206 62 247 0.0 1.7 0.00 0.00 0.00 35 1006.3
20260504023944 63 246 0.0 1.7 0.00 0.00 0.00 34 1006.1
20260504023442 64 247 0.0 1.7 0.00 0.00 0.00 34 1006.1
20260504022942 64 218 0.0 1.7 0.00 0.00 0.00 33 1006.1
20260504022444 64 254 0.0 0.9 0.00 0.00 0.00 32 1006.0
20260504021940 64 254 0.0 0.0 0.00 0.00 0.00 32 1005.9
20260504021440 65 254 0.0 0.0 0.00 0.00 0.00 32 1005.9
20260504020940 66 253 0.0 0.9 0.00 0.00 0.00 31 1005.9
20260504020438 66 253 0.0 1.7 0.00 0.00 0.00 30 1005.9
20260504015936 67 248 0.0 1.7 0.00 0.00 0.00 30 1005.9
20260504015432 67 249 0.0 5.2 0.00 0.00 0.00 30 1005.8
20260504014931 67 245 0.9 5.2 0.00 0.00 0.00 30 1005.8
20260504014433 67 320 0.0 2.6 0.00 0.00 0.00 30 1005.8
20260504013931 67 247 0.0 2.6 0.00 0.00 0.00 30 1005.8
20260504013434 68 247 0.0 2.6 0.00 0.00 0.00 30 1005.8
20260504013200 68 272 0.0 2.6 0.00 0.00 0.00 29 1005.8
20260504012431 69 271 0.9 3.5 0.00 0.00 0.00 28 1005.7
20260504011932 69 267 0.9 3.5 0.00 0.00 0.00 28 1005.7
20260504011432 70 276 0.9 2.6 0.00 0.00 0.00 28 1005.6
20260504011150 70 269 0.9 2.6 0.00 0.00 0.00 28 1005.6
20260504010431 71 291 0.9 3.5 0.00 0.00 0.00 27 1005.5
20260504010152 71 249 1.7 5.2 0.00 0.00 0.00 27 1005.3
20260504005431 72 227 1.7 6.1 0.00 0.00 0.00 26 1005.5
20260504004932 72 237 1.7 6.1 0.00 0.00 0.00 26 1005.5
20260504004431 72 246 1.7 4.3 0.00 0.00 0.00 26 1005.3
20260504004155 73 257 1.7 4.3 0.00 0.00 0.00 25 1005.3
20260504003433 73 236 1.7 7.0 0.00 0.00 0.00 25 1005.3
20260504003156 74 228 1.7 7.0 0.00 0.00 0.00 24 1005.5
20260504002435 74 261 1.7 5.2 0.00 0.00 0.00 24 1005.3
20260504001932 75 297 2.6 9.6 0.00 0.00 0.00 24 1005.3
20260504001433 75 230 3.5 9.6 0.00 0.00 0.00 23 1005.3
20260504000932 75 303 3.5 8.7 0.00 0.00 0.00 23 1005.2
20260504000657 75 230 2.6 7.8 0.00 0.00 0.00 23 1005.3
20260503235933 75 342 3.5 9.6 0.00 0.00 0.00 23 1005.2
20260503235434 75 246 3.5 9.6 0.00 0.00 0.00 23 1005.1
20260503234934 75 264 3.5 9.6 0.00 0.00 0.00 24 1005.1
20260503234433 75 312 3.5 10.4 0.00 0.00 0.00 24 1005.1
20260503233931 76 227 3.5 10.4 0.00 0.00 0.00 24 1005.1
20260503233432 76 303 4.3 12.2 0.00 0.00 0.00 23 1005.1
20260503232932 76 311 4.3 12.2 0.00 0.00 0.00 24 1005.1
20260503232432 76 285 3.5 12.2 0.00 0.00 0.00 25 1005.0
20260503231934 76 294 2.6 7.8 0.00 0.00 0.00 24 1005.0
20260503231432 76 275 3.5 10.4 0.00 0.00 0.00 25 1005.0
20260503230932 76 242 2.6 10.4 0.00 0.00 0.00 24 1005.0
20260503230432 76 218 2.6 8.7 0.00 0.00 0.00 24 1005.1
20260503230156 76 332 3.5 7.8 0.00 0.00 0.00 25 1005.1
20260503225430 76 297 4.3 13.0 0.00 0.00 0.00 25 1005.1
20260503224930 76 250 3.5 13.0 0.00 0.00 0.00 24 1005.1
20260503224430 76 231 2.6 10.4 0.00 0.00 0.00 24 1005.1
20260503223927 76 308 4.3 13.9 0.00 0.00 0.00 24 1005.0
20260503223428 76 258 4.3 13.9 0.00 0.00 0.00 25 1005.0
20260503222927 76 283 5.2 12.2 0.00 0.00 0.00 26 1004.9
20260503222652 76 342 5.2 12.2 0.00 0.00 0.00 25 1005.1
20260503221929 76 303 4.3 12.2 0.00 0.00 0.00 25 1005.0
20260503221424 76 275 2.6 9.6 0.00 0.00 0.00 24 1005.0
20260503220917 76 268 2.6 7.0 0.00 0.00 0.00 34 1005.0
20260503220413 76 268 2.6 9.6 0.00 0.00 0.00 34 1005.0
20260503215913 76 133 4.3 12.2 0.00 0.00 0.00 35 1004.9
20260503215413 76 236 4.3 12.2 0.00 0.00 0.00 35 1004.9
20260503214912 76 233 2.6 9.6 0.00 0.00 0.00 35 1004.9
20260503214411 76 219 3.5 11.3 0.00 0.00 0.00 37 1004.9
20260503213911 75 240 3.5 11.3 0.00 0.00 0.00 35 1005.0
20260503213637 75 253 2.6 10.4 0.00 0.00 0.00 36 1005.1
20260503212908 75 242 3.5 10.4 0.00 0.00 0.00 36 1005.1
20260503212410 75 317 4.3 12.2 0.00 0.00 0.00 37 1005.1
20260503211907 74 247 4.3 12.2 0.00 0.00 0.00 38 1005.1
20260503211405 74 100 4.3 10.4 0.00 0.00 0.00 37 1005.3
20260503210908 74 268 4.3 14.8 0.00 0.00 0.00 37 1005.3
20260503210407 74 105 4.3 14.8 0.00 0.00 0.00 40 1005.5
20260503205904 74 235 4.3 12.2 0.00 0.00 0.00 39 1005.6
20260503205404 74 270 4.3 12.2 0.00 0.00 0.00 39 1005.6
20260503204907 74 297 3.5 11.3 0.00 0.00 0.00 39 1005.7
20260503204630 74 159 3.5 10.4 0.00 0.00 0.00 37 1005.7
20260503204131 74 330 5.2 13.9 0.00 0.00 0.00 30 1005.9
20260503202905 75 296 6.1 13.0 0.00 0.00 0.00 28 1005.7
20260503202404 76 268 5.2 11.3 0.00 0.00 0.00 27 1005.6
20260503201904 76 40 5.2 12.2 0.00 0.00 0.00 29 1005.6
20260503201403 76 261 4.3 12.2 0.00 0.00 0.00 28 1005.6
20260503200904 76 277 3.5 11.3 0.00 0.00 0.00 28 1005.6
20260503200406 75 347 4.3 10.4 0.00 0.00 0.00 32 1005.7
20260503195904 74 251 4.3 12.2 0.00 0.00 0.00 34 1005.7
20260503195406 74 237 4.3 12.2 0.00 0.00 0.00 32 1005.7
20260503194904 74 301 3.5 10.4 0.00 0.00 0.00 32 1005.6
20260503194403 74 294 2.6 10.4 0.00 0.00 0.00 34 1005.9
20260503193904 74 138 3.5 11.3 0.00 0.00 0.00 34 1005.9
20260503193403 74 145 3.5 11.3 0.00 0.00 0.00 35 1006.1
20260503193130 74 261 3.5 10.4 0.00 0.00 0.00 35 1006.1
20260503192404 74 262 2.6 10.4 0.00 0.00 0.00 33 1006.2
20260503191903 74 216 2.6 9.6 0.00 0.00 0.00 36 1006.2
20260503191631 73 303 3.5 10.4 0.00 0.00 0.00 35 1006.2
20260503190855 73 207 3.5 10.4 0.00 0.00 0.00 36 1006.3
20260503190350 73 166 3.5 8.7 0.00 0.00 0.00 36 1006.4
20260503185844 72 216 3.5 8.7 0.00 0.00 0.00 37 1006.6
20260503185343 72 260 3.5 11.3 0.00 0.00 0.00 37 1006.5
20260503184843 72 298 4.3 11.3 0.00 0.00 0.00 36 1006.7
20260503184343 72 247 4.3 11.3 0.00 0.00 0.00 36 1006.7
20260503183843 72 116 3.5 11.3 0.00 0.00 0.00 37 1006.7
20260503183343 72 301 2.6 9.6 0.00 0.00 0.00 39 1006.7
20260503182844 72 221 2.6 9.6 0.00 0.00 0.00 39 1006.8
20260503182344 71 331 3.5 10.4 0.00 0.00 0.00 37 1006.8
20260503181844 71 152 3.5 10.4 0.00 0.00 0.00 39 1006.9
20260503181343 71 319 3.5 10.4 0.00 0.00 0.00 37 1007.0
20260503180843 70 190 3.5 10.4 0.00 0.00 0.00 38 1007.1
20260503180343 71 263 3.5 9.6 0.00 0.00 0.00 39 1007.2
20260503175842 70 249 3.5 10.4 0.00 0.00 0.00 40 1007.3
20260503175342 69 204 3.5 12.2 0.00 0.00 0.00 39 1007.3
20260503174841 69 219 3.5 14.8 0.00 0.00 0.00 40 1007.4
20260503174341 69 274 4.3 14.8 0.00 0.00 0.00 38 1007.4
20260503173841 68 157 4.3 10.4 0.00 0.00 0.00 40 1007.6
20260503173341 68 71 3.5 10.4 0.00 0.00 0.00 39 1007.6
20260503172841 68 156 3.5 10.4 0.00 0.00 0.00 40 1007.6
20260503172342 67 275 3.5 10.4 0.00 0.00 0.00 40 1007.6
20260503171843 67 265 3.5 9.6 0.00 0.00 0.00 39 1007.7
20260503171341 67 265 3.5 9.6 0.00 0.00 0.00 40 1007.7
20260503170841 67 285 3.5 14.8 0.00 0.00 0.00 41 1007.7
20260503170341 67 81 3.5 14.8 0.00 0.00 0.00 40 1007.7
20260503150751 60 144 3.5 9.6 0.00 0.00 0.00 46 1009.4
20260503150244 59 131 3.5 9.6 0.00 0.00 0.00 48 1009.6
20260503140241 52 176 4.3 7.8 0.00 0.00 0.00 59 1010.4
20260503131233 51 191 2.6 7.0 0.00 0.00 0.00 58 1011.2
20260503130952 51 188 1.7 6.1 0.00 0.00 0.00 56 1011.4
20260503130454 52 218 2.6 6.1 0.00 0.00 0.00 54 1011.6